Vertical_Velocity
1 1 -3 -6 -3 -5 -1 -2 -10 -12 -13 18 -3 -10 -12 -9 0 2 -2 -4 -3 -3 -4 -6 -0 1 1 -2 -2 -0 -0 -2 -2 0 -1 -1 -0 -2 -2 -3 -1 -1 1 -0
-0 -1 -2 -3 -4 -3 -8 10 -13 -16 -4 -10 -5 -8 -4 -3 -6 -3 -2 -3 -3 -2 -1 1 -1 -2 2 1 0 1 3 1 1 -1 -1 0 -0 -2 -1 -0 -1 -0 -1 -1
-7 0 1 -3 -1 -1 -4 -5 -7 -8 10 -7 -5 -6 -10 -4 -4 -4 -5 -4 -1 -1 -2 -2 -3 -1 -0 1 3 3 1 0 0 0 2 1 -1 1 0 1 1 -1 0 1
-2 -7 -1 -2 -5 1 -0 -3 -3 0 -4 -3 -6 1 -10 -6 -2 -2 -1 -2 -4 -5 -3 -1 0 0 -1 -1 -1 -2 -1 -1 -1 0 -1 -1 -1 -1 1 1 0 -1 -3 -2
0 0 -4 3 -2 -2 3 -6 -6 -5 -3 -3 -5 1 -2 -4 -5 -4 -2 -0 -1 -0 -1 -0 0 -0 -1 -2 -1 -2 -2 -2 -3 -1 -1 -2 -1 -1 -1 -0 -2 -1 0 0
3 -0 1 -3 1 0 -4 3 -0 -1 2 -3 -2 -3 -4 -4 -2 -1 -2 -3 -1 -3 -1 -2 -3 -2 -2 -2 -3 -3 -3 -3 -2 -3 -2 -1 -1 -0 -0 -1 -0 0 0 1
4 3 -1 0 -1 1 -4 -4 0 1 -0 -0 2 2 1 1 -1 -4 -3 -2 0 -2 -1 -4 -6 -5 -3 -3 -4 -3 -2 -2 -1 -0 -2 -2 -2 -2 -1 -1 -1 -2 -2 -2
0 2 2 -2 1 -2 2 -5 -7 -3 3 0 -1 1 2 2 3 3 2 0 1 -1 -2 -1 -0 -2 -1 0 -0 -1 -2 -4 -3 -3 -3 -1 -1 -2 -1 -1 -0 -1 -2 -2
1 0 2 0 0 0 -2 3 -3 -3 0 2 1 0 -1 -2 1 0 -0 1 0 -1 -4 -6 -5 -4 -3 -2 -2 -2 -2 -2 -1 -0 -1 -1 -1 -0 -1 -1 -2 -2 -1 -1
2 -1 1 1 -1 -1 -0 -1 2 -1 -2 -3 -2 1 4 2 -2 -1 0 -0 -0 1 1 2 1 0 -1 -1 -0 1 0 1 1 -0 -1 1 0 0 0 -1 0 0 1 2
-1 4 1 -0 3 3 -2 -4 0 2 1 -3 1 0 -2 -2 1 2 1 0 0 -1 -1 -1 -1 2 2 -0 -1 -2 -1 -1 -2 1 -1 1 1 2 0 1 2 2 2 3
5 1 -1 1 0 2 3 -1 -2 -4 1 1 -3 -3 -2 2 -1 0 2 3 1 -0 -0 -0 1 1 1 1 1 -1 1 1 -0 -1 -0 3 3 1 2 2 1 2 -0 -2
-4 1 4 0 -3 2 -2 5 -2 0 -2 1 2 -3 -0 -0 -0 2 -2 0 5 3 2 1 -1 -2 1 -2 -1 0 3 1 3 -3 -6 2 2 4 2 2 1 2 2 3
-3 -0 -1 4 6 -3 3 0 -0 -1 -0 -0 -1 4 1 -0 -1 -1 -1 -5 -4 1 4 3 -0 -2 6 2 -1 -3 -2 4 1 5 -3 -3 -0 -2 -2 0 2 3 3 4
-2 -2 1 1 -0 6 -1 -1 2 2 -0 -2 -2 -0 0 1 1 -1 2 1 0 -2 -4 -0 2 -0 -5 3 7 -2 4 2 0 2 -2 -1 -4 -0 2 -0 -2 1 3 0
3 -2 -5 -1 1 0 8 1 -2 -1 3 6 1 0 -5 1 1 1 -1 -1 -1 -3 1 -1 1 -3 -4 -1 6 -3 0 -4 -2 0 2 2 2 -0 -1 -2 0 -1 -1 0
1 6 -4 -2 -3 1 -2 3 5 -3 -3 1 2 1 -2 -3 -2 -2 0 -1 -2 -1 -1 2 -1 0 -1 4 -0 3 -0 2 3 4 3 -2 1 1 1 3 -3 -5 -5 -4
1 -0 4 -5 -3 -2 -0 -1 2 4 -1 -0 1 9 2 -2 -2 -2 -4 -2 -4 -2 -4 -0 0 1 -7 6 1 -3 -0 -1 -1 -1 2 2 -3 -1 0 0 -3 -4 -2 0
1 0 -1 2 -3 -5 -7 -1 -1 -2 -1 0 11 6 2 4 -0 -4 -4 -3 -1 1 3 -1 -5 7 4 -9 3 1 -1 1 -0 1 1 -3 -1 -3 -0 -0 -3 -2 1 -3
-1 -0 -1 -1 1 -4 -4 -11 -7 2 -4 7 12 -3 6 -4 0 2 -1 2 -4 -6 6 -4 4 14 -3 -7 -1 1 0 1 1 0 -2 0 -2 -0 -1 0 1 0 -1 -1
10 -5 -4 -3 3 -5 -4 -13 2 -2 4 4 14 -8 -1 1 5 -3 -1 -2 -4 -1 5 -11 10 3 -7 -1 -1 -2 -0 -0 1 1 0 -0 -0 -2 0 0 1 -1 0 -0
-2 -2 -4 -5 -1 -7 -12 -6 3 9 -8 5 1 1 -5 1 -1 -3 5 -5 -2 -1 4 1 3 -5 1 0 1 1 -0 1 2 0 -2 -0 0 0 -1 -0 2 3 3 2
7 -9 0 -6 -4 -26 1 -4 14 8 -7 -1 -7 -2 -1 -2 -2 4 -3 -2 0 -3 -0 -3 -4 0 0 1 2 2 -0 1 0 0 -0 -1 1 1 2 1 0 1 0 0
-0 5 -17 -4 -34 -14 8 9 11 3 0 -3 -0 -8 -2 4 -7 -3 7 -8 -2 -6 -3 -7 -3 -1 -2 -1 1 2 3 3 2 2 1 -0 0 1 0 -1 -0 1 1 2
5 -1 -17 -37 7 7 4 11 16 2 -1 -4 -4 -3 0 -1 -5 0 -3 -2 -5 5 -9 0 -2 -0 -3 -1 -1 0 1 -1 -1 -2 -1 -0 1 1 -1 1 1 2 1 -1
2 -15 -23 -8 3 16 9 8 9 5 -1 -1 2 3 -8 -0 -11 -1 -1 -4 13 3 -7 -3 1 -1 -0 -2 -2 -2 -1 -1 -1 -4 -2 -0 -2 -2 -1 -2 1 1 -1 1
-2 -36 14 -8 3 19 7 10 13 3 -0 4 -1 -2 13 -5 -15 -1 8 14 10 1 -1 -0 -1 -1 -1 1 4 2 -0 -0 -2 -3 -1 -1 -3 -0 -2 -1 -1 3 2 2
Height
5687 5676 5667 5661 5654 5649 5648 5650 5650 5643 5642 5647 5646 5645 5646 5646 5647 5649 5653 5656 5658 5660 5662 5664 5666 5667 5670 5672 5674 5676 5677 5677 5676 5677 5677 5677 5676 5675 5674 5671 5669 5666 5663 5661
5700 5692 5683 5674 5668 5662 5659 5665 5658 5653 5649 5657 5656 5655 5654 5654 5655 5658 5659 5661 5664 5665 5667 5669 5670 5672 5674 5676 5677 5677 5678 5679 5679 5679 5680 5679 5678 5677 5676 5674 5672 5669 5667 5665
5709 5703 5696 5690 5682 5677 5673 5672 5667 5664 5667 5667 5666 5665 5665 5665 5665 5667 5667 5669 5670 5671 5673 5675 5676 5677 5678 5678 5678 5679 5681 5681 5682 5682 5681 5680 5678 5677 5675 5674 5673 5671 5669 5667
5719 5712 5706 5700 5695 5691 5685 5683 5680 5677 5676 5676 5675 5676 5674 5675 5675 5676 5676 5677 5678 5680 5680 5681 5681 5682 5683 5683 5683 5683 5684 5683 5683 5683 5682 5680 5679 5677 5675 5673 5672 5672 5670 5668
5727 5723 5717 5710 5704 5701 5698 5692 5691 5688 5686 5685 5684 5685 5683 5682 5683 5683 5683 5683 5684 5685 5686 5686 5687 5687 5687 5687 5688 5688 5687 5687 5685 5683 5681 5679 5677 5675 5674 5672 5671 5670 5669 5667
5733 5728 5725 5720 5715 5711 5709 5703 5698 5697 5696 5694 5694 5693 5692 5692 5691 5690 5689 5689 5689 5690 5690 5690 5690 5691 5691 5691 5691 5690 5689 5688 5686 5684 5681 5679 5679 5677 5675 5674 5672 5672 5671 5670
5737 5734 5729 5726 5723 5718 5715 5713 5709 5705 5703 5701 5700 5699 5699 5698 5698 5698 5697 5696 5695 5695 5694 5693 5692 5692 5692 5691 5690 5689 5688 5687 5686 5685 5684 5683 5681 5680 5678 5677 5676 5674 5673 5671
5739 5737 5733 5729 5727 5725 5721 5717 5716 5713 5710 5707 5706 5705 5703 5702 5701 5700 5699 5699 5698 5697 5697 5696 5695 5694 5693 5692 5691 5691 5690 5689 5688 5687 5685 5685 5683 5681 5680 5678 5677 5675 5673 5671
5738 5737 5735 5732 5729 5728 5725 5722 5719 5717 5716 5715 5712 5710 5708 5707 5705 5704 5703 5702 5701 5701 5701 5700 5700 5698 5696 5695 5694 5692 5691 5690 5689 5687 5685 5684 5682 5681 5679 5678 5676 5674 5672 5670
5736 5736 5735 5734 5732 5729 5727 5725 5723 5720 5719 5718 5716 5714 5713 5710 5709 5708 5707 5705 5703 5702 5702 5700 5700 5699 5697 5696 5693 5692 5690 5689 5688 5686 5684 5684 5682 5680 5678 5677 5678 5672 5670 5667
5732 5733 5733 5733 5731 5730 5729 5727 5725 5724 5722 5720 5718 5717 5714 5713 5712 5710 5709 5708 5706 5705 5703 5702 5700 5699 5698 5696 5695 5693 5692 5690 5688 5686 5684 5683 5680 5679 5677 5675 5672 5669 5667 5664
5731 5728 5728 5729 5730 5730 5729 5727 5724 5724 5722 5721 5720 5718 5717 5715 5714 5712 5710 5709 5707 5705 5703 5702 5700 5699 5697 5696 5695 5693 5692 5691 5689 5687 5684 5682 5679 5676 5674 5671 5668 5666 5663 5660
5728 5727 5725 5722 5723 5724 5726 5726 5725 5723 5721 5720 5719 5717 5716 5715 5715 5713 5710 5709 5707 5705 5703 5702 5700 5698 5697 5695 5694 5691 5690 5688 5687 5684 5680 5678 5676 5673 5670 5667 5664 5661 5657 5654
5720 5721 5719 5720 5716 5716 5717 5719 5720 5720 5720 5719 5716 5715 5715 5713 5712 5711 5710 5709 5707 5705 5703 5701 5699 5696 5695 5694 5692 5689 5687 5686 5684 5682 5677 5673 5670 5667 5664 5661 5658 5655 5651 5647
5715 5714 5714 5714 5714 5711 5709 5709 5711 5711 5713 5714 5713 5712 5710 5710 5709 5707 5706 5704 5703 5702 5701 5699 5697 5694 5692 5691 5689 5681 5680 5678 5676 5675 5672 5668 5664 5659 5657 5653 5650 5646 5643 5640
5706 5707 5708 5708 5708 5707 5705 5703 5702 5703 5703 5704 5706 5707 5704 5703 5702 5701 5700 5698 5697 5696 5694 5693 5692 5688 5687 5687 5686 5681 5677 5673 5670 5667 5664 5660 5655 5652 5648 5644 5640 5638 5635 5631
5698 5698 5698 5699 5700 5699 5698 5697 5695 5693 5693 5694 5695 5698 5699 5695 5693 5692 5691 5689 5688 5686 5685 5686 5682 5681 5677 5678 5674 5673 5669 5667 5664 5660 5656 5652 5649 5645 5641 5637 5633 5630 5626 5622
5687 5689 5690 5691 5691 5691 5690 5687 5687 5687 5686 5685 5688 5690 5689 5687 5684 5681 5680 5677 5676 5677 5674 5676 5674 5670 5668 5669 5665 5662 5660 5658 5656 5652 5648 5645 5642 5639 5634 5630 5627 5622 5617 5614
5677 5678 5679 5680 5682 5682 5682 5679 5678 5677 5679 5677 5682 5681 5677 5678 5674 5672 5670 5668 5665 5664 5664 5662 5660 5661 5662 5657 5654 5652 5652 5651 5649 5644 5642 5639 5636 5632 5628 5624 5621 5616 5611 5607
5662 5664 5666 5667 5671 5670 5672 5671 5668 5667 5668 5669 5676 5673 5669 5667 5667 5665 5664 5660 5657 5654 5655 5652 5651 5653 5651 5645 5644 5644 5644 5642 5640 5638 5635 5632 5628 5624 5621 5617 5614 5609 5604 5600
5643 5647 5649 5651 5653 5657 5658 5658 5659 5658 5659 5662 5666 5664 5658 5659 5658 5656 5654 5652 5649 5648 5649 5645 5645 5641 5636 5636 5636 5635 5634 5634 5632 5630 5628 5625 5621 5616 5612 5608 5605 5601 5597 5592
5625 5628 5630 5634 5636 5638 5643 5642 5644 5650 5652 5653 5651 5649 5647 5647 5646 5645 5645 5643 5641 5642 5642 5640 5635 5630 5628 5627 5626 5625 5625 5623 5622 5620 5618 5615 5612 5607 5603 5598 5593 5589 5585 5581
5597 5604 5608 5614 5619 5623 5627 5629 5630 5634 5637 5640 5638 5637 5636 5635 5635 5633 5633 5632 5633 5633 5633 5632 5627 5626 5622 5621 5619 5617 5615 5613 5611 5609 5607 5605 5601 5597 5593 5589 5584 5578 5575 5571
5573 5576 5581 5589 5601 5611 5617 5613 5612 5615 5618 5621 5625 5623 5624 5623 5622 5621 5620 5621 5622 5622 5624 5622 5619 5618 5618 5616 5615 5613 5611 5609 5606 5603 5598 5595 5591 5588 5585 5580 5575 5570 5565 5561
5551 5550 5556 5577 5586 5592 5594 5595 5596 5597 5599 5603 5606 5608 5609 5609 5608 5608 5608 5608 5609 5612 5612 5610 5609 5609 5608 5606 5604 5603 5602 5601 5598 5595 5591 5588 5584 5579 5575 5571 5566 5561 5556 5550
5524 5525 5542 5560 5564 5571 5573 5575 5576 5579 5583 5586 5587 5589 5591 5593 5594 5596 5596 5597 5600 5601 5598 5597 5597 5596 5596 5595 5594 5592 5590 5588 5586 5582 5579 5576 5573 5570 5565 5561 5557 5553 5547 5541
5496 5518 5532 5538 5546 5549 5555 5557 5559 5562 5565 5569 5569 5572 5575 5575 5578 5583 5585 5589 5585 5584 5584 5585 5583 5582 5583 5583 5581 5580 5578 5576 5572 5569 5565 5562 5560 5557 5554 5551 5548 5543 5538 5531